Wetbulb
32.76 32.60 32.75 33.06 33.32 33.53 33.74 34.52 35.05 34.79 34.94 35.53 37.15 38.58 37.59 35.97 34.83 34.48 35.05 36.21 35.94 37.71
31.59 31.90 31.58 31.50 31.84 31.82 32.22 33.92 33.80 33.40 33.27 33.65 33.97 34.35 35.27 33.91 33.28 33.32 33.56 34.39 34.71 35.57
30.18 30.21 29.91 29.96 29.28 29.80 30.75 31.14 31.17 31.22 31.49 31.98 32.48 32.51 32.44 31.87 32.25 31.85 32.33 33.27 32.59 34.06
29.86 29.98 29.05 28.75 28.23 27.89 28.42 29.68 29.81 29.73 29.55 29.41 29.68 30.41 30.60 31.03 31.26 30.75 31.40 32.00 31.74 32.17
30.27 29.69 28.51 26.91 27.73 26.93 26.74 27.46 28.56 28.70 27.91 27.78 27.96 28.35 28.49 29.11 30.20 30.13 30.19 31.24 30.68 31.58
27.19 26.10 26.11 26.84 27.16 27.22 25.42 24.63 26.05 26.42 26.22 26.59 27.25 27.35 27.73 28.06 28.73 29.52 30.00 30.81 30.88 31.10
24.70 25.54 25.42 26.09 25.35 25.54 25.53 24.34 24.76 26.13 25.88 26.07 25.68 26.43 26.94 27.63 27.46 27.58 28.72 29.65 30.45 30.75
25.07 25.21 24.79 24.56 24.74 24.93 24.47 24.15 24.26 24.24 24.25 24.42 24.94 25.44 25.15 26.82 27.16 27.33 27.98 28.92 29.14 29.73
24.69 25.55 25.62 25.51 25.58 24.72 24.31 23.44 22.92 22.46 22.20 21.92 23.83 27.52 29.07 28.85 26.74 27.07 27.49 27.64 28.64 29.14
23.89 24.00 24.42 24.38 23.89 23.48 22.99 23.17 22.30 21.78 21.51 21.05 21.71 26.33 27.47 27.82 26.03 25.71 26.27 26.85 27.60 28.30
22.05 21.04 21.21 20.97 20.50 20.59 20.88 20.59 20.76 20.95 21.03 20.50 21.17 25.39 25.93 25.93 23.86 23.36 23.85 24.89 26.22 26.89
17.95 16.38 16.31 14.64 15.00 15.97 16.28 16.69 16.98 18.40 18.05 17.87 18.56 23.28 23.92 23.59 20.54 20.31 20.69 22.60 23.53 24.38
14.61 11.51 10.73 11.10 10.34 11.12 11.13 12.29 13.23 12.88 13.62 13.84 13.47 18.56 20.11 20.09 17.51 16.42 17.72 18.97 21.10 24.03
10.68 8.16 7.36 7.23 7.66 6.92 6.49 7.78 6.47 7.54 8.62 9.32 10.80 11.71 17.07 18.83 16.74 16.22 16.23 17.06 18.27 20.82
MSLP
1023.18 1023.12 1023.12 1023.06 1023.22 1022.98 1022.40 1022.03 1021.67 1021.29 1020.97 1019.69 1018.89 1018.57 1018.48 1018.72 1018.90 1018.93 1018.86 1018.84 1018.93 1018.82
1024.25 1023.69 1023.69 1023.60 1023.20 1023.41 1023.42 1022.73 1022.21 1021.58 1021.18 1020.34 1019.38 1019.06 1018.89 1018.78 1018.68 1018.66 1018.58 1018.50 1018.41 1018.34
1024.56 1024.42 1024.43 1023.85 1023.49 1023.51 1023.76 1023.81 1023.24 1022.16 1021.26 1020.60 1020.15 1019.20 1019.19 1019.14 1018.84 1018.66 1018.37 1018.12 1018.03 1017.86
1024.79 1024.68 1024.71 1024.71 1024.38 1023.70 1023.45 1023.73 1023.64 1023.09 1021.68 1020.63 1020.51 1019.86 1019.36 1019.15 1018.96 1018.80 1018.37 1018.01 1017.72 1017.37
1025.23 1025.28 1024.97 1025.22 1025.02 1024.50 1023.77 1023.14 1023.07 1022.53 1021.84 1020.91 1020.77 1020.22 1019.29 1019.07 1018.87 1018.76 1018.36 1017.57 1017.45 1017.07
1025.48 1025.49 1025.09 1025.13 1024.94 1024.38 1024.21 1023.49 1022.72 1022.48 1022.11 1021.09 1020.78 1020.28 1019.07 1018.71 1018.39 1018.33 1017.93 1017.40 1016.83 1016.49
1025.18 1025.06 1025.05 1024.81 1024.26 1023.98 1023.45 1022.94 1022.61 1022.29 1021.87 1020.84 1020.31 1019.53 1018.98 1018.48 1017.93 1017.62 1017.32 1017.00 1016.50 1015.91
1024.70 1024.63 1024.39 1024.06 1023.61 1023.10 1022.82 1022.38 1022.05 1021.56 1021.01 1020.21 1019.71 1019.15 1018.53 1018.06 1017.45 1017.21 1016.46 1016.11 1015.86 1015.20
1024.47 1024.20 1023.87 1023.38 1022.85 1022.46 1022.09 1021.79 1021.44 1020.84 1020.34 1019.45 1019.15 1018.57 1018.00 1017.65 1017.19 1016.47 1015.87 1015.22 1014.93 1014.49
1024.39 1024.04 1023.64 1023.25 1022.83 1022.35 1021.88 1021.33 1020.64 1020.00 1019.50 1018.88 1018.22 1017.91 1017.41 1017.14 1016.56 1015.95 1015.28 1014.51 1014.04 1013.67
1024.56 1024.38 1024.03 1023.61 1023.10 1022.49 1021.98 1021.23 1020.39 1019.56 1019.06 1018.43 1017.28 1016.96 1016.88 1016.66 1016.22 1015.49 1014.52 1013.78 1013.18 1012.81
1025.03 1024.86 1024.50 1024.05 1023.45 1022.77 1022.00 1021.02 1020.17 1019.37 1018.53 1018.03 1016.76 1016.76 1016.62 1016.30 1015.74 1014.76 1013.72 1013.19 1012.56 1011.63
1025.31 1025.13 1024.76 1024.22 1023.61 1022.94 1022.31 1021.12 1020.30 1019.15 1018.67 1017.94 1016.78 1016.48 1016.24 1015.97 1015.25 1014.01 1013.09 1012.06 1011.07 1010.35
1025.46 1025.14 1024.71 1024.00 1023.46 1022.78 1021.93 1020.97 1020.16 1019.17 1018.50 1017.88 1017.18 1016.17 1015.65 1014.97 1014.05 1013.11 1011.85 1010.66 1009.56 1008.77
Wind_Speed
8 6 6 7 6 7 6 6 9 9 8 8 7 6 4 3 4 5 7 11 8 8
7 8 7 8 6 6 7 8 9 8 9 9 7 7 7 4 5 5 6 7 9 9
6 7 7 5 6 7 7 9 9 9 8 9 9 7 6 5 6 6 5 5 7 9
6 7 7 8 7 6 5 6 8 8 7 7 8 7 7 7 7 7 7 7 7 9
4 6 5 5 7 6 7 7 9 10 9 6 6 7 6 7 7 7 8 8 7 9
4 5 5 6 6 6 7 7 9 8 9 10 10 10 8 6 8 9 9 9 9 10
4 5 6 7 7 7 7 7 8 8 9 9 10 10 11 10 9 9 9 10 10 10
5 5 6 7 7 7 7 8 8 10 10 10 10 8 9 10 10 11 12 11 10 11
6 9 11 12 12 10 10 9 10 11 12 13 10 20 23 21 13 13 14 14 13 11
8 11 11 11 12 14 15 16 16 15 14 15 15 25 27 27 15 15 15 16 15 14
7 7 9 11 13 15 15 16 16 17 17 17 17 30 29 29 18 16 18 18 18 18
5 9 12 14 15 15 15 16 17 17 19 18 20 30 31 27 17 18 21 19 20 19
10 9 12 14 15 14 14 17 15 18 18 21 23 29 33 29 15 18 15 19 21 29
9 11 12 13 12 14 15 16 16 17 16 18 18 20 30 31 17 14 15 15 15 14
Wind_Direction
31 34 29 25 8 2 2 350 342 345 331 342 340 311 266 232 239 236 228 233 233 240
14 34 28 16 23 5 346 347 346 344 342 338 345 341 323 285 264 252 241 239 238 239
18 16 9 16 21 10 348 338 335 340 345 344 336 344 340 317 301 285 265 247 239 247
12 6 360 355 349 358 335 330 329 318 332 346 337 336 336 317 302 290 277 271 248 247
350 344 347 325 324 329 329 332 326 328 328 328 319 316 325 316 300 288 286 272 265 263
296 300 293 287 289 296 300 311 318 316 315 320 315 309 309 292 293 294 284 276 268 261
269 275 268 267 273 267 270 278 282 280 279 291 297 300 300 299 294 286 279 276 271 265
285 269 265 266 271 271 266 280 278 290 288 286 281 282 288 283 282 282 284 278 266 262
308 312 312 312 313 307 301 294 289 294 294 295 287 289 292 292 283 281 278 275 273 264
313 309 307 307 310 310 310 309 302 297 295 289 286 289 293 294 291 285 277 273 271 268
301 305 315 314 311 306 303 298 295 292 291 290 288 291 294 296 291 286 280 276 273 266
342 323 315 307 303 302 301 298 296 292 292 290 288 292 294 297 296 287 282 278 273 271
317 309 303 302 301 299 295 291 294 292 292 292 291 296 296 295 284 280 279 278 274 270
306 303 296 294 296 295 292 290 290 288 290 290 290 294 296 296 289 282 278 274 275 271